CW2969 Weather Reports


time (UTC)temp
F
wind
direction
speed
knots
gust
knots
rain 1hr
in
rain 24hr
in
rain mn
in
humidity
%
barometer
mb
20260510065533 71 237 0.0 0.0 0.00 0.27 0.00 80 1010.1
20260510065032 71 237 0.0 0.0 0.00 0.27 0.00 80 1010.1
20260510064533 71 237 0.0 0.0 0.00 0.27 0.00 80 1010.0
20260510064032 71 237 0.0 0.0 0.00 0.27 0.00 80 1010.0
20260510063532 71 237 0.0 0.0 0.00 0.27 0.00 80 1009.9
20260510062532 71 237 0.0 0.0 0.00 0.27 0.00 80 1010.0
20260510062032 71 237 0.0 0.0 0.00 0.27 0.00 79 1009.9
20260510061532 71 237 0.0 0.0 0.00 0.27 0.00 79 1009.9
20260510061032 72 237 0.0 0.0 0.00 0.27 0.00 79 1009.8
20260510060532 72 215 0.0 0.9 0.00 0.27 0.00 79 1009.8
20260510060032 72 171 0.0 0.9 0.00 0.27 0.00 79 1009.9
20260510055532 72 145 0.0 0.0 0.00 0.27 0.00 79 1009.6
20260510054531 72 145 0.0 3.5 0.00 0.27 0.00 79 1009.6
20260510053531 72 121 0.0 3.5 0.00 0.27 0.00 79 1009.7
20260510053031 72 142 2.6 3.5 0.00 0.27 0.00 80 1009.8
20260510052531 72 111 1.7 1.7 0.00 0.27 0.00 80 1009.9
20260510052031 72 111 0.0 0.0 0.00 0.27 0.00 80 1009.9
20260510051031 72 111 0.0 0.0 0.00 0.27 0.00 80 1009.8
20260510050531 72 111 0.0 0.0 0.00 0.27 0.00 80 1009.8
20260510050031 73 111 0.0 0.0 0.00 0.27 0.00 80 1009.8
20260510045531 73 111 0.0 0.0 0.00 0.27 0.27 80 1009.6
20260510045031 73 111 0.0 0.0 0.00 0.27 0.27 80 1009.6
20260510044531 73 111 0.0 0.0 0.00 0.27 0.27 79 1009.5
20260510044031 73 111 0.0 0.0 0.00 0.27 0.27 79 1009.6
20260510043531 74 111 0.0 0.0 0.00 0.27 0.27 79 1009.7
20260510043031 74 111 0.0 0.0 0.00 0.27 0.27 79 1009.6
20260510042530 74 111 0.0 0.0 0.00 0.27 0.27 79 1009.6
20260510042030 74 111 0.0 1.7 0.00 0.27 0.27 79 1009.6
20260510041030 74 111 0.0 0.0 0.00 0.27 0.27 79 1009.5
20260510040530 75 111 0.0 0.0 0.00 0.27 0.27 79 1009.5
20260510040030 75 111 0.0 0.0 0.00 0.27 0.27 78 1009.5
20260510035030 76 111 0.0 0.0 0.00 0.27 0.27 78 1009.2
20260510034530 76 111 0.0 0.0 0.00 0.27 0.27 78 1009.2
20260510034030 76 111 0.0 0.0 0.00 0.27 0.27 77 1009.1
20260510033530 76 111 0.0 0.0 0.00 0.27 0.27 77 1009.1
20260510033030 77 111 0.0 0.0 0.00 0.27 0.27 77 1009.1
20260510032530 77 111 0.0 0.0 0.00 0.27 0.27 77 1009.1
20260510032030 77 111 0.0 0.0 0.00 0.27 0.27 77 1009.0
20260510031530 77 111 0.0 0.0 0.00 0.27 0.27 76 1008.9
20260510030530 78 111 0.0 0.0 0.00 0.27 0.27 76 1008.7
20260510030030 78 111 0.0 0.0 0.00 0.27 0.27 75 1008.6
20260510025530 78 111 0.0 0.0 0.00 0.27 0.27 75 1008.5
20260510025029 79 111 0.0 0.0 0.00 0.27 0.27 75 1008.4
20260510024530 79 111 0.0 0.0 0.00 0.27 0.27 75 1008.3
20260510024029 79 111 0.0 0.0 0.00 0.27 0.27 75 1008.3
20260510023530 80 111 0.0 0.9 0.00 0.27 0.27 74 1008.4
20260510023029 80 111 0.0 1.7 0.00 0.27 0.27 74 1008.3
20260510021529 81 128 0.0 0.9 0.00 0.27 0.27 73 1008.3
20260510021029 81 128 0.0 0.0 0.00 0.27 0.27 73 1008.2
20260510020029 82 128 0.0 3.5 0.00 0.27 0.27 73 1008.0
20260510015529 82 128 0.9 3.5 0.00 0.27 0.27 73 1007.9
20260510015029 82 155 0.0 0.9 0.00 0.27 0.27 72 1007.9
20260510014029 83 140 4.3 6.1 0.00 0.27 0.27 72 1007.8
20260510012529 83 134 2.6 3.5 0.00 0.27 0.27 71 1007.6
20260510011529 84 108 0.0 3.5 0.00 0.27 0.27 70 1007.5
20260510010028 85 143 0.0 1.7 0.00 0.27 0.27 69 1007.4
20260510005528 86 143 0.9 1.7 0.00 0.27 0.27 69 1007.5
20260510005028 86 133 0.0 0.0 0.00 0.27 0.27 69 1007.5
20260510004528 86 133 0.0 0.0 0.00 0.27 0.27 68 1007.5
20260510004028 87 90 0.0 0.0 0.00 0.27 0.27 69 1007.4
20260510002528 87 153 0.0 0.9 0.00 0.27 0.27 67 1007.3
20260510002028 87 105 0.0 2.6 0.00 0.27 0.27 68 1007.2
20260510001528 87 94 0.9 2.6 0.00 0.27 0.27 67 1007.3
20260510001028 87 119 0.0 2.6 0.00 0.27 0.27 67 1007.2
20260510000528 87 119 0.9 2.6 0.00 0.27 0.27 68 1007.2
20260510000028 87 127 0.0 0.9 0.00 0.27 0.27 66 1007.2
20260509235528 87 113 0.0 0.0 0.00 0.27 0.27 66 1007.1
20260509235028 87 115 0.0 1.7 0.00 0.27 0.27 67 1007.1
20260509234528 87 116 0.0 1.7 0.00 0.27 0.27 65 1007.0
20260509234027 87 139 0.0 2.6 0.00 0.27 0.27 66 1007.0
20260509233527 87 97 0.9 2.6 0.00 0.27 0.27 66 1006.9
20260509233027 87 123 0.0 2.6 0.00 0.27 0.27 66 1006.9
20260509232528 87 101 0.0 2.6 0.00 0.27 0.27 65 1006.9
20260509232027 87 119 0.0 2.6 0.00 0.27 0.27 66 1006.9
20260509230527 86 347 0.0 2.6 0.00 0.27 0.27 65 1007.0
20260509225527 86 117 1.7 3.5 0.00 0.27 0.27 65 1006.9
20260509225027 86 107 3.5 3.5 0.00 0.27 0.27 63 1006.9
20260509224527 86 156 1.7 1.7 0.00 0.27 0.27 64 1007.0
20260509224027 86 118 0.0 2.6 0.00 0.27 0.27 64 1006.9
20260509223527 86 95 0.0 5.2 0.00 0.27 0.27 64 1006.9
20260509223027 86 101 5.2 5.2 0.00 0.27 0.27 65 1006.9
20260509222527 86 107 0.0 2.6 0.00 0.27 0.27 65 1006.9
20260509222027 85 144 0.0 3.5 0.00 0.27 0.27 65 1006.8
20260509221527 85 96 1.7 5.2 0.00 0.27 0.27 64 1006.9
20260509221027 84 103 2.6 5.2 0.00 0.27 0.27 65 1006.7
20260509220527 83 116 0.9 1.7 0.00 0.27 0.27 66 1006.6
20260509220027 83 173 0.0 2.6 0.00 0.27 0.27 68 1006.6
20260509215527 82 229 1.7 2.6 0.00 0.27 0.27 69 1006.8
20260509215027 81 202 0.9 4.3 0.00 0.27 0.27 71 1006.8
20260509214026 78 251 0.9 1.7 0.00 0.27 0.27 73 1006.9
20260509213527 77 132 0.9 3.5 0.00 0.27 0.27 74 1007.0
20260509213027 76 215 2.6 3.5 0.00 0.27 0.27 75 1007.1
20260509212526 75 195 1.7 7.0 0.01 0.27 0.27 75 1007.0
20260509212027 74 178 1.7 7.0 0.03 0.27 0.27 76 1007.0
20260509211526 73 119 0.9 6.1 0.07 0.27 0.27 77 1007.2
20260509210027 73 232 0.9 4.3 0.24 0.27 0.27 79 1007.2
20260509205526 73 45 0.0 0.9 0.24 0.27 0.27 80 1007.2
20260509205026 72 183 0.0 2.6 0.24 0.27 0.27 80 1007.2
20260509204526 71 125 1.7 8.7 0.24 0.27 0.27 79 1007.1
20260509204026 72 130 6.1 8.7 0.24 0.27 0.27 78 1007.4
20260509203526 72 302 0.9 6.1 0.24 0.27 0.27 78 1007.5
20260509203026 73 230 0.9 6.1 0.24 0.27 0.27 76 1007.6
20260509202526 75 160 3.5 6.1 0.23 0.26 0.26 75 1007.9
20260509202026 77 135 0.0 8.7 0.21 0.24 0.24 72 1008.7
20260509201526 80 130 3.5 9.6 0.17 0.20 0.20 68 1008.7
20260509201025 84 115 5.2 9.6 0.06 0.09 0.09 71 1009.1
20260509200526 87 24 1.7 9.6 0.00 0.03 0.03 66 1008.5
20260509200026 88 5 2.6 3.5 0.00 0.03 0.03 66 1008.3
20260509195526 89 101 2.6 3.5 0.00 0.03 0.03 67 1008.0
20260509195025 89 122 0.0 7.0 0.00 0.03 0.03 68 1007.9
20260509194525 89 155 1.7 7.0 0.00 0.03 0.03 68 1007.8
20260509194025 89 160 0.9 3.5 0.00 0.03 0.03 68 1007.8
20260509193525 89 146 3.5 3.5 0.00 0.03 0.03 68 1007.9
20260509192525 88 222 1.7 7.8 0.00 0.03 0.03 69 1008.1
20260509192025 88 91 2.6 7.8 0.00 0.03 0.03 69 1008.1
20260509191024 88 140 6.1 6.1 0.00 0.03 0.03 69 1008.3
20260509190524 88 155 1.7 3.5 0.00 0.03 0.03 70 1008.2
20260509190024 88 238 0.0 3.5 0.00 0.03 0.03 71 1008.3
20260509185524 88 211 1.7 3.5 0.00 0.03 0.03 71 1008.4
20260509184524 87 333 0.0 5.2 0.00 0.03 0.03 72 1008.6
20260509184024 87 167 0.9 5.2 0.00 0.03 0.03 72 1008.8
20260509183524 87 219 0.0 2.6 0.00 0.03 0.03 74 1008.9
20260509182524 86 115 2.6 6.1 0.00 0.03 0.03 74 1009.1
20260509182024 86 184 0.9 2.6 0.00 0.03 0.03 75 1009.3
20260509181524 85 167 2.6 5.2 0.00 0.03 0.03 75 1009.3
20260509181024 85 119 2.6 5.2 0.00 0.03 0.03 75 1009.3
20260509180023 85 268 1.7 3.5 0.00 0.03 0.03 76 1009.3
20260509175523 85 319 0.9 2.6 0.00 0.03 0.03 76 1009.4
20260509175023 84 284 2.6 6.1 0.00 0.03 0.03 76 1009.3
20260509174523 84 233 0.9 6.1 0.00 0.03 0.03 76 1009.4
20260509174024 84 244 0.0 3.5 0.00 0.03 0.03 77 1009.7
20260509173524 84 330 0.9 2.6 0.00 0.03 0.03 77 1009.9
20260509173023 84 321 1.7 2.6 0.00 0.03 0.03 77 1009.9
20260509172523 84 213 0.0 2.6 0.00 0.03 0.03 77 1009.9
20260509172023 83 207 1.7 2.6 0.00 0.03 0.03 78 1009.8
20260509171523 83 180 0.9 2.6 0.00 0.03 0.03 78 1009.7
20260509170523 82 306 1.7 2.6 0.00 0.03 0.03 78 1009.7
20260509170023 82 154 0.9 2.6 0.00 0.03 0.03 79 1009.8
20260509165523 82 265 1.7 5.2 0.00 0.03 0.03 79 1009.9
20260509164523 81 147 2.6 5.2 0.00 0.03 0.03 79 1010.0
20260509163523 80 187 2.6 7.8 0.00 0.03 0.03 80 1010.1
20260509163023 80 136 0.9 5.2 0.00 0.03 0.03 80 1010.0
20260509162522 80 184 0.9 1.7 0.00 0.03 0.03 80 1010.1
20260509161523 79 284 0.9 4.3 0.00 0.03 0.03 80 1009.9
20260509160522 79 188 0.9 3.5 0.00 0.03 0.03 80 1009.9
20260509155022 78 141 6.1 6.1 0.00 0.03 0.03 79 1009.8
20260509154022 77 92 0.0 3.5 0.00 0.03 0.03 79 1009.8
20260509153522 77 147 1.7 3.5 0.00 0.03 0.03 79 1009.8
20260509153022 77 119 2.6 4.3 0.00 0.03 0.03 79 1009.9
20260509152522 77 139 1.7 4.3 0.00 0.03 0.03 78 1009.9
20260509152022 77 186 0.0 2.6 0.00 0.03 0.03 78 1009.9
20260509151522 77 174 0.9 4.3 0.00 0.03 0.03 77 1010.0
20260509151022 77 113 1.7 4.3 0.00 0.03 0.03 77 1010.0
20260509150522 76 186 0.9 3.5 0.00 0.03 0.03 77 1009.9
20260509150022 76 116 1.7 3.5 0.01 0.03 0.03 76 1010.0
20260509145522 76 218 1.7 3.5 0.01 0.03 0.03 76 1009.9
20260509144522 75 237 0.9 6.1 0.01 0.03 0.03 76 1009.8
20260509143522 75 95 3.5 7.0 0.01 0.03 0.03 78 1009.8
20260509143022 75 178 0.0 7.0 0.01 0.03 0.03 78 1009.8
20260509142522 75 173 1.7 5.2 0.01 0.03 0.03 78 1009.3
20260509142022 75 205 0.9 6.1 0.01 0.03 0.03 78 1009.3
20260509141021 74 223 1.7 4.3 0.01 0.03 0.03 78 1009.6
20260509140521 74 145 0.9 0.9 0.01 0.03 0.03 78 1009.8
20260509140021 74 114 0.0 1.7 0.00 0.02 0.02 78 1009.9
20260509135521 74 114 0.9 1.7 0.00 0.02 0.02 78 1009.9
20260509135021 74 114 0.0 0.0 0.00 0.02 0.02 78 1009.9
20260509134521 74 114 0.0 0.0 0.00 0.02 0.02 78 1009.9
20260509134021 74 114 0.0 0.0 0.00 0.02 0.02 78 1009.9
20260509133021 74 114 0.0 0.0 0.00 0.02 0.02 79 1009.9
20260509132521 74 114 0.0 0.0 0.00 0.02 0.02 79 1009.9
20260509132021 74 114 0.0 0.0 0.00 0.02 0.02 79 1010.0
20260509131521 74 114 0.0 0.9 0.00 0.02 0.02 79 1009.9
20260509131021 74 114 0.0 0.9 0.00 0.02 0.02 79 1009.8
20260509130520 74 121 0.0 0.0 0.00 0.02 0.02 79 1009.7
20260509125521 74 122 0.0 0.9 0.00 0.02 0.02 79 1009.5
20260509125020 74 347 0.0 0.0 0.00 0.02 0.02 79 1009.2
20260509124520 74 347 0.0 0.0 0.00 0.02 0.02 79 1009.1
20260509124020 74 347 0.0 0.0 0.00 0.02 0.02 79 1009.2
20260509123020 74 68 0.0 0.0 0.00 0.02 0.02 79 1009.3
20260509122521 74 68 0.0 0.0 0.00 0.02 0.02 79 1009.3
20260509122020 74 68 0.0 0.0 0.00 0.02 0.02 79 1009.4
20260509121520 74 68 0.0 0.0 0.00 0.02 0.02 79 1009.4
20260509121020 74 68 0.0 0.0 0.00 0.02 0.02 79 1009.6
20260509120020 74 68 0.0 0.0 0.00 0.02 0.02 80 1009.5
20260509115520 74 68 0.0 0.0 0.00 0.02 0.02 80 1009.5
20260509115020 74 68 0.0 0.0 0.00 0.02 0.02 80 1009.6
20260509114520 74 68 0.0 0.9 0.00 0.02 0.02 80 1009.7
20260509113020 74 41 0.0 0.9 0.00 0.02 0.02 80 1010.1
20260509112520 74 46 0.0 0.0 0.00 0.02 0.02 80 1009.9
20260509112019 74 46 0.0 0.0 0.00 0.02 0.02 80 1010.0
20260509111520 74 46 0.0 0.9 0.00 0.02 0.02 80 1010.2
20260509111020 74 46 0.0 1.7 0.00 0.02 0.02 80 1010.2
20260509110520 74 46 0.0 3.5 0.00 0.02 0.02 80 1010.2
20260509110019 74 31 0.9 3.5 0.00 0.02 0.02 80 1010.2
20260509105519 74 59 0.0 1.7 0.00 0.02 0.02 80 1010.4
20260509105019 74 80 0.0 1.7 0.00 0.02 0.02 80 1010.4
20260509104519 74 70 1.7 1.7 0.00 0.02 0.02 80 1010.5
20260509103519 74 73 0.0 1.7 0.00 0.02 0.02 81 1010.4
20260509103019 74 5 0.0 1.7 0.00 0.02 0.02 81 1010.4
20260509102519 74 32 0.0 0.9 0.00 0.02 0.02 81 1010.4
20260509102019 74 32 0.0 0.0 0.00 0.02 0.02 81 1010.1
20260509101519 74 32 0.0 0.0 0.00 0.02 0.02 81 1009.9
20260509101019 74 32 0.0 0.0 0.00 0.02 0.02 81 1009.6
20260509100019 74 32 0.9 0.9 0.01 0.02 0.02 81 1009.3
20260509095519 74 32 0.0 0.0 0.01 0.02 0.02 81 1009.3
20260509095019 74 32 0.0 0.0 0.01 0.02 0.02 81 1009.2
20260509094018 74 32 0.0 0.0 0.02 0.02 0.02 81 1009.2
20260509093519 74 32 0.0 0.0 0.02 0.02 0.02 81 1009.2
20260509093018 74 32 0.0 0.0 0.02 0.02 0.02 81 1009.2
20260509092518 74 32 0.0 0.0 0.02 0.02 0.02 81 1009.3
20260509092018 74 32 0.0 0.0 0.02 0.02 0.02 81 1009.1
20260509090518 74 32 0.0 0.0 0.02 0.02 0.02 81 1009.0
20260509090017 74 32 0.0 0.0 0.01 0.01 0.01 81 1009.0
20260509085518 74 32 0.0 0.0 0.01 0.01 0.01 81 1009.1
20260509085018 74 32 0.0 0.0 0.01 0.01 0.01 81 1009.1
20260509084518 74 32 0.0 0.0 0.01 0.01 0.01 81 1009.2
20260509084017 74 32 0.0 1.7 0.00 0.00 0.00 81 1009.2
20260509083518 74 17 0.0 1.7 0.00 0.00 0.00 81 1009.3
20260509083017 75 82 0.0 0.9 0.00 0.00 0.00 81 1009.4
20260509082517 75 101 0.0 0.9 0.00 0.00 0.00 82 1009.5
20260509082017 75 90 0.0 0.9 0.00 0.00 0.00 82 1009.6
20260509081017 75 16 0.0 0.9 0.00 0.00 0.00 82 1009.6
20260509075517 75 115 1.7 2.6 0.00 0.00 0.00 82 1009.2
20260509075017 75 133 0.0 1.7 0.00 0.00 0.00 82 1009.2
20260509074517 75 133 0.0 2.6 0.00 0.00 0.00 82 1009.1
20260509074017 75 115 1.7 2.6 0.00 0.00 0.00 82 1009.2
20260509073516 74 193 0.0 0.9 0.00 0.00 0.00 82 1009.4
20260509073017 74 193 0.0 0.9 0.00 0.00 0.00 82 1009.5
20260509072016 74 252 0.0 0.0 0.00 0.00 0.00 82 1009.3
20260509071516 74 252 0.0 0.0 0.00 0.00 0.00 82 1009.5
20260509071016 74 252 0.0 0.0 0.00 0.00 0.00 82 1009.6
20260509070516 74 252 0.0 0.0 0.00 0.00 0.00 82 1009.7
20260509070016 74 252 0.0 2.6 0.00 0.00 0.00 82 1009.7